K3RUP-1 Weather Reports


time (UTC)temp
C
wind
direction
speed
KPH
gust
KPH
rain 1hr
cm
rain 24hr
cm
rain mn
cm
humidity
%
barometer
mb
20260507091601 12 140 0.0 0.0 0.00 0.13 0.13 94 1011.4
20260507091057 12 144 0.0 0.0 0.00 0.13 0.13 94 1011.0
20260507090553 12 140 0.0 0.0 0.13 0.13 0.13 94 1011.1
20260507090050 12 154 0.0 0.0 0.13 0.13 0.13 93 1010.8
20260507085547 12 154 0.0 0.0 0.00 0.10 0.10 93 1010.6
20260507085044 12 138 0.0 0.0 0.00 0.10 0.10 93 1010.5
20260507084540 12 140 0.0 0.0 0.00 0.10 0.10 92 1011.1
20260507084037 12 147 0.0 0.0 0.00 0.10 0.10 91 1010.8
20260507083533 12 158 0.0 0.0 0.00 0.10 0.10 91 1010.5
20260507083030 12 131 0.0 0.0 0.00 0.10 0.10 90 1010.7
20260507082526 12 150 0.0 0.0 0.00 0.10 0.10 90 1010.3
20260507082022 12 144 0.0 0.0 0.00 0.10 0.10 89 1010.2
20260507081519 13 136 0.0 0.0 0.00 0.10 0.10 90 1010.4
20260507081016 13 151 0.0 0.0 0.00 0.10 0.10 90 1010.3
20260507080512 13 162 0.0 0.0 0.00 0.10 0.10 89 1010.3
20260507080008 13 140 0.0 0.0 0.00 0.10 0.10 87 1010.2
20260507075504 13 115 0.0 0.0 0.00 0.10 0.10 87 1010.3
20260507075000 13 135 0.0 0.0 0.00 0.10 0.10 87 1009.9
20260507074457 13 154 0.0 0.0 0.00 0.10 0.10 89 1009.9
20260507073956 13 181 0.0 0.0 0.00 0.10 0.10 90 1009.7
20260507073451 13 131 0.0 0.0 0.00 0.10 0.10 90 1010.0
20260507072948 13 153 0.0 0.0 0.00 0.10 0.10 91 1010.1
20260507072445 13 184 0.0 0.0 0.00 0.10 0.10 91 1009.9
20260507071943 13 134 0.0 0.0 0.00 0.10 0.10 92 1009.4
20260507071440 13 89 0.0 0.0 0.00 0.10 0.10 92 1009.6
20260507070936 13 159 0.0 0.0 0.00 0.10 0.10 94 1009.5
20260507070434 13 140 0.0 0.0 0.00 0.10 0.10 95 1009.7
20260507065931 13 157 0.0 0.0 0.00 0.10 0.10 95 1009.7
20260507065427 13 189 0.0 0.0 0.00 0.10 0.10 95 1009.9
20260507064924 13 138 0.0 0.0 0.00 0.10 0.10 95 1009.7
20260507064422 13 133 0.0 0.0 0.00 0.10 0.10 95 1009.6
20260507063920 13 156 0.0 0.0 0.00 0.10 0.10 94 1009.4
20260507063417 13 165 0.0 0.0 0.18 0.10 0.10 94 1009.2
20260507062914 13 131 0.0 0.0 0.18 0.10 0.10 94 1009.4
20260507062411 13 159 0.0 0.0 0.00 0.08 0.08 94 1009.4
20260507061909 13 117 0.0 0.0 0.00 0.08 0.08 94 1009.7
20260507061407 13 152 0.0 0.0 0.00 0.08 0.08 94 1009.9
20260507060905 13 141 0.0 0.0 0.00 0.08 0.08 94 1009.6
20260507060401 13 163 0.0 0.0 0.00 0.08 0.08 94 1010.1
20260507055858 13 23 0.0 0.0 0.00 0.08 0.08 94 1009.9
20260507055353 14 65 0.0 0.0 0.00 0.08 0.08 94 1009.8
20260507054851 14 138 0.0 0.0 0.00 0.08 0.08 94 1009.7
20260507054346 15 137 0.0 0.0 0.00 0.08 0.08 93 1009.7
20260507053844 15 147 0.0 0.0 0.13 0.08 0.08 92 1009.6
20260507053342 15 145 0.0 0.0 0.30 0.08 0.08 90 1009.5
20260507052840 15 136 0.0 0.0 0.30 0.05 0.05 89 1009.7
20260507052336 16 134 0.0 0.0 0.13 0.03 0.03 87 1009.8
20260507051834 16 170 0.0 0.0 0.00 0.00 0.00 85 1010.1
20260507051332 16 139 0.0 0.0 0.00 0.00 0.00 83 1010.2
20260507050828 16 243 0.0 0.0 0.00 0.00 0.00 83 1009.9
20260507050325 16 117 0.0 0.0 0.00 0.00 0.00 84 1009.9
20260507045822 17 138 0.0 0.0 0.00 0.00 0.00 83 1009.3
20260507045318 17 126 0.0 0.0 0.00 0.00 0.00 82 1010.0
20260507044815 17 150 0.0 0.0 0.00 0.00 0.00 82 1009.6
20260507044312 17 122 0.0 0.0 0.00 0.00 0.00 82 1009.8
20260507043808 17 139 0.0 0.0 0.00 0.00 0.00 82 1009.6
20260507043305 17 142 0.0 0.0 0.00 0.00 0.00 83 1009.2
20260507042801 17 134 0.0 0.0 0.00 0.00 0.00 84 1009.1
20260507042256 17 170 0.0 0.0 0.00 0.00 0.00 83 1009.5
20260507041754 17 146 0.0 0.0 0.00 0.00 0.00 83 1009.3
20260507041250 17 135 0.0 0.0 0.00 0.00 0.00 82 1008.9
20260507040747 17 144 0.0 0.0 0.00 0.00 0.00 82 1008.6
20260507040243 17 134 0.0 0.0 0.00 0.00 0.00 81 1008.7
20260507035739 17 137 0.0 0.0 0.00 0.36 0.36 81 1008.8
20260507035235 18 136 0.0 0.0 0.00 0.36 0.36 81 1009.3
20260507034733 18 136 0.0 0.0 0.00 0.36 0.36 80 1009.2
20260507034229 17 137 0.0 0.0 0.00 0.36 0.36 80 1009.0
20260507033728 18 143 0.0 0.0 0.00 0.36 0.36 82 1009.2
20260507033225 17 160 0.0 0.0 0.00 0.36 0.36 83 1009.0
20260507032722 18 185 0.0 0.0 0.00 0.36 0.36 86 1009.0
20260507032218 18 146 0.0 0.0 0.00 0.36 0.36 85 1009.0
20260507031715 18 154 0.0 0.0 0.00 0.36 0.36 85 1008.9
20260507031212 18 137 0.0 0.0 0.00 0.36 0.36 85 1008.9
20260507030709 18 142 0.0 0.0 0.00 0.36 0.36 86 1008.7
20260507030206 18 154 0.0 0.0 0.00 0.36 0.36 89 1008.8
20260507025703 18 146 0.0 0.0 0.00 0.36 0.36 90 1008.8
20260507025200 18 141 0.0 0.0 0.00 0.36 0.36 90 1008.7
20260507024658 18 139 0.0 0.0 0.00 0.36 0.36 90 1008.5
20260507024155 18 150 0.0 0.0 0.00 0.36 0.36 90 1008.4
20260507023650 18 139 0.0 0.0 0.00 0.36 0.36 91 1008.3
20260507023148 18 143 0.0 0.0 0.00 0.36 0.36 91 1008.4
20260507022644 18 142 0.0 0.0 0.00 0.36 0.36 91 1008.4
20260507022135 18 145 0.0 0.0 0.00 0.36 0.36 91 1008.2
20260507021631 18 145 0.0 0.0 0.00 0.36 0.36 91 1008.4
20260507021126 18 147 0.0 0.0 0.00 0.36 0.36 91 1008.1
20260507020625 18 142 0.0 0.0 0.00 0.36 0.36 91 1008.1
20260507020121 18 142 0.0 0.0 0.00 0.36 0.36 91 1008.1
20260507015619 18 139 0.0 0.0 0.00 0.36 0.36 91 1007.7
20260507015117 18 142 0.0 0.0 0.00 0.36 0.36 91 1008.3
20260507014613 18 139 0.0 0.0 0.00 0.36 0.36 91 1008.2
20260507014109 18 139 0.0 0.0 0.00 0.36 0.36 90 1008.4
20260507013606 18 139 0.0 0.0 0.00 0.36 0.36 90 1008.6
20260507013102 18 139 0.0 0.0 0.00 0.36 0.36 90 1008.6
20260507012600 18 137 0.0 0.0 0.00 0.36 0.36 90 1008.6
20260507012056 18 139 0.0 0.0 0.00 0.36 0.36 90 1008.8
20260507011554 18 141 0.0 0.0 0.00 0.36 0.36 89 1008.6
20260507011050 18 143 0.0 0.0 0.00 0.36 0.36 89 1008.8
20260507010544 18 144 0.0 0.0 0.00 0.36 0.36 89 1008.7
20260507010041 19 139 0.0 0.0 0.00 0.36 0.36 90 1008.4
20260507005538 19 139 0.0 0.0 0.00 0.36 0.36 90 1008.6
20260507005029 18 145 0.0 0.0 0.00 0.36 0.36 89 1008.4
20260507004526 18 147 0.0 0.0 0.00 0.36 0.36 89 1008.2
20260507004024 19 139 0.0 0.0 0.00 0.36 0.36 89 1008.0
20260507003519 19 139 0.0 0.0 0.00 0.36 0.36 89 1008.3
20260507003014 19 139 0.0 0.0 0.00 0.36 0.36 89 1008.0
20260507002511 19 141 0.0 0.0 0.00 0.36 0.36 89 1008.3
20260507002007 19 142 0.0 0.0 0.00 0.36 0.36 89 1008.1
20260507001504 20 145 0.0 0.0 0.00 0.36 0.36 88 1008.2
20260507001001 19 142 0.0 0.0 0.00 0.36 0.36 87 1008.3
20260507000456 20 137 0.0 0.0 0.00 0.36 0.36 87 1008.0
20260506235952 20 135 0.0 0.0 0.00 0.36 0.36 87 1008.2
20260506235450 20 136 0.0 0.0 0.00 0.36 0.36 87 1008.3
20260506234940 20 141 0.0 0.0 0.00 0.36 0.36 87 1008.0
20260506234438 20 138 0.0 0.0 0.00 0.36 0.36 87 1007.9
20260506233935 20 135 0.0 0.0 0.00 0.36 0.36 86 1007.8
20260506233431 20 136 0.0 0.0 0.00 0.36 0.36 86 1007.8
20260506232928 20 142 0.0 0.0 0.00 0.36 0.36 85 1007.8
20260506232424 20 142 0.0 0.0 0.00 0.36 0.36 84 1007.6
20260506231920 20 141 0.0 0.0 0.00 0.36 0.36 84 1007.6
20260506231417 20 81 0.0 1.6 0.00 0.36 0.36 86 1007.6
20260506230909 20 145 0.0 0.0 0.00 0.36 0.36 85 1007.7
20260506230406 20 134 0.0 0.0 0.00 0.36 0.36 84 1007.5
20260506225902 20 148 0.0 0.0 0.00 0.36 0.36 84 1007.7
20260506225359 20 156 0.0 0.0 0.00 0.36 0.36 83 1007.4
20260506224856 21 140 0.0 0.0 0.00 0.36 0.36 84 1007.6
20260506224354 21 148 0.0 0.0 0.00 0.36 0.36 83 1007.6
20260506223850 21 138 0.0 0.0 0.00 0.36 0.36 82 1007.7
20260506223345 20 159 0.0 0.0 0.00 0.36 0.36 82 1007.6
20260506222843 21 169 0.0 0.0 0.00 0.36 0.36 82 1007.2
20260506222338 21 141 0.0 0.0 0.00 0.36 0.36 82 1007.6
20260506221836 21 140 0.0 0.0 0.00 0.36 0.36 81 1007.7
20260506221333 21 169 0.0 0.0 0.00 0.36 0.36 81 1007.7
20260506220831 21 137 0.0 0.0 0.00 0.36 0.36 81 1007.7
20260506220326 21 120 0.0 0.0 0.00 0.36 0.36 80 1007.6
20260506215823 21 355 3.2 4.8 0.00 0.36 0.36 80 1007.6
20260506215319 21 252 0.0 0.0 0.00 0.36 0.36 80 1007.7
20260506214815 21 195 0.0 0.0 0.00 0.36 0.36 81 1007.6
20260506214312 21 129 0.0 0.0 0.00 0.36 0.36 79 1007.5
20260506213810 21 132 0.0 0.0 0.00 0.36 0.36 79 1007.5
20260506213307 21 129 0.0 0.0 0.00 0.36 0.36 80 1007.4
20260506212804 21 141 0.0 0.0 0.00 0.36 0.36 79 1007.4
20260506212300 21 76 1.6 1.6 0.00 0.36 0.36 79 1007.4
20260506211755 21 193 0.0 0.0 0.00 0.36 0.36 78 1007.4
20260506211251 21 137 0.0 0.0 0.00 0.36 0.36 78 1007.2
20260506210749 21 151 0.0 0.0 0.00 0.36 0.36 79 1007.4
20260506210245 21 210 0.0 0.0 0.00 0.36 0.36 78 1007.1
20260506205742 21 142 0.0 0.0 0.00 0.36 0.36 79 1007.1
20260506205238 21 144 0.0 0.0 0.00 0.36 0.36 80 1007.0
20260506204735 21 164 0.0 0.0 0.00 0.36 0.36 80 1007.0
20260506204233 21 137 0.0 0.0 0.00 0.36 0.36 78 1007.1
20260506203730 22 125 0.0 0.0 0.00 0.36 0.36 78 1007.2
20260506203227 22 310 1.6 3.2 0.00 0.36 0.36 77 1007.0
20260506202724 22 142 0.0 0.0 0.00 0.36 0.36 79 1006.8
20260506202220 21 190 0.0 0.0 0.00 0.36 0.36 80 1007.1
20260506201712 22 190 0.0 0.0 0.00 0.36 0.36 77 1007.0
20260506201209 22 144 0.0 0.0 0.00 0.36 0.36 77 1007.1
20260506200706 22 134 0.0 0.0 0.00 0.36 0.36 75 1006.7
20260506200203 22 128 0.0 0.0 0.00 0.36 0.36 76 1006.9
20260506195658 22 226 0.0 0.0 0.00 0.36 0.36 77 1007.0
20260506195155 21 136 0.0 0.0 0.00 0.36 0.36 79 1007.0
20260506194647 21 136 0.0 0.0 0.00 0.36 0.36 77 1007.3
20260506194143 22 1 3.2 8.0 0.00 0.36 0.36 76 1007.3
20260506193641 22 174 1.6 3.2 0.00 0.36 0.36 77 1007.1
20260506193138 22 95 0.0 0.0 0.00 0.36 0.36 77 1007.1
20260506192635 21 351 6.4 9.7 0.00 0.36 0.36 76 1007.3
20260506192131 21 106 0.0 0.0 0.00 0.36 0.36 77 1007.3
20260506191628 21 147 0.0 0.0 0.00 0.36 0.36 78 1007.3
20260506191124 21 260 0.0 1.6 0.00 0.36 0.36 80 1007.1
20260506190621 21 74 0.0 1.6 0.00 0.36 0.36 80 1007.7
20260506190118 20 115 0.0 0.0 0.00 0.36 0.36 81 1007.5
20260506185615 21 154 0.0 0.0 0.00 0.36 0.36 82 1007.6
20260506185111 20 179 0.0 0.0 0.00 0.36 0.36 82 1007.6
20260506184609 20 324 3.2 4.8 0.00 0.36 0.36 81 1007.9
20260506184106 21 134 0.0 0.0 0.00 0.36 0.36 82 1007.6
20260506183603 20 26 0.0 0.0 0.00 0.36 0.36 81 1007.8
20260506183058 20 111 0.0 1.6 0.00 0.36 0.36 82 1007.6
20260506182556 20 143 0.0 0.0 0.00 0.36 0.36 83 1008.0
20260506182053 20 243 0.0 0.0 0.00 0.36 0.36 82 1008.0
20260506181551 20 137 0.0 0.0 0.00 0.36 0.36 84 1007.8
20260506181047 20 142 0.0 0.0 0.00 0.36 0.36 83 1008.0
20260506180544 20 92 0.0 0.0 0.00 0.36 0.36 84 1008.2
20260506180041 20 112 0.0 0.0 0.00 0.36 0.36 87 1008.2
20260506175537 20 133 0.0 0.0 0.00 0.36 0.36 86 1008.1
20260506175034 19 173 0.0 0.0 0.00 0.36 0.36 87 1008.1
20260506174533 19 167 0.0 0.0 0.00 0.36 0.36 89 1008.4
20260506174028 19 297 0.0 0.0 0.00 0.36 0.36 88 1008.2
20260506173526 19 343 1.6 3.2 0.00 0.36 0.36 89 1008.1
20260506173023 18 148 0.0 0.0 0.00 0.36 0.36 90 1008.4
20260506172520 18 136 0.0 0.0 0.00 0.36 0.36 91 1008.5
20260506172016 18 128 0.0 0.0 0.00 0.36 0.36 92 1008.3
20260506171514 18 118 0.0 0.0 0.00 0.36 0.36 95 1008.4
20260506171011 17 166 0.0 0.0 0.00 0.36 0.36 95 1008.4
20260506170508 17 172 0.0 0.0 0.00 0.36 0.36 96 1008.2
20260506170005 17 123 0.0 0.0 0.00 0.36 0.36 97 1008.5
20260506165504 17 19 0.0 3.2 0.00 0.36 0.36 97 1008.6
20260506164954 17 74 0.0 0.0 0.00 0.36 0.36 97 1008.8
20260506164451 17 172 0.0 0.0 0.00 0.36 0.36 98 1008.7
20260506163949 17 111 0.0 0.0 0.00 0.36 0.36 98 1008.5
20260506163444 17 221 0.0 0.0 0.00 0.36 0.36 98 1008.6
20260506162939 17 210 0.0 0.0 0.00 0.36 0.36 98 1008.5
20260506162437 17 100 0.0 0.0 0.00 0.36 0.36 98 1008.4
20260506161934 17 181 0.0 0.0 0.00 0.36 0.36 98 1008.4
20260506161432 17 138 0.0 0.0 0.00 0.36 0.36 98 1008.4
20260506160929 16 139 0.0 0.0 0.00 0.36 0.36 98 1008.9
20260506160426 16 134 0.0 0.0 0.00 0.36 0.36 98 1009.2
20260506155923 16 140 0.0 0.0 0.00 0.36 0.36 98 1009.2
20260506155420 16 122 0.0 0.0 0.18 0.36 0.36 98 1009.2
20260506153543 16 113 0.0 0.0 0.13 0.33 0.33 97 1009.0
20260506153040 16 128 0.0 0.0 0.13 0.33 0.33 97 1009.3
20260506152537 16 124 0.0 0.0 0.00 0.30 0.30 97 1009.3
20260506152035 16 142 0.0 0.0 0.00 0.30 0.30 97 1009.7
20260506151533 16 132 0.0 0.0 0.18 0.30 0.30 96 1009.8
20260506151030 16 128 0.0 0.0 0.18 0.30 0.30 96 1009.7
20260506150526 16 138 0.0 0.0 0.43 0.28 0.28 96 1009.8
20260506150023 16 138 0.0 0.0 0.61 0.28 0.28 96 1009.8
20260506145520 16 129 0.0 0.0 0.36 0.20 0.20 95 1009.8
20260506145017 16 160 0.0 0.0 0.30 0.18 0.18 95 1010.0
20260506144514 16 143 0.0 0.0 0.30 0.15 0.15 94 1010.0
20260506144011 16 144 0.0 0.0 0.30 0.13 0.13 94 1009.6
20260506143509 16 137 0.0 0.0 0.13 0.10 0.10 94 1009.8
20260506143007 16 138 0.0 0.0 0.00 0.08 0.08 93 1009.7
20260506142504 17 133 0.0 0.0 0.18 0.08 0.08 92 1009.8
20260506142003 17 129 0.0 0.0 0.30 0.08 0.08 91 1009.5
20260506141500 17 81 0.0 0.0 0.13 0.05 0.05 90 1009.9
20260506140958 17 137 0.0 0.0 0.00 0.03 0.03 90 1009.7
20260506140455 17 144 0.0 0.0 0.00 0.03 0.03 89 1009.8
20260506135952 17 90 0.0 0.0 0.18 0.03 0.03 88 1010.0
20260506135449 17 189 0.0 0.0 0.18 0.03 0.03 85 1010.3
20260506134945 18 140 0.0 0.0 0.00 0.00 0.00 83 1010.1
20260506134441 18 313 0.0 0.0 0.00 0.00 0.00 82 1010.3
20260506133938 18 144 0.0 0.0 0.00 0.00 0.00 82 1009.9
20260506133435 18 140 0.0 0.0 0.00 0.00 0.00 81 1010.0
20260506132932 18 129 0.0 0.0 0.00 0.00 0.00 81 1009.6
20260506132429 18 129 0.0 0.0 0.00 0.00 0.00 80 1009.6
20260506131926 18 208 0.0 0.0 0.00 0.00 0.00 81 1009.8
20260506131423 18 135 0.0 0.0 0.00 0.00 0.00 79 1009.5
20260506130920 19 132 0.0 0.0 0.00 0.00 0.00 77 1009.6
20260506130416 18 135 0.0 0.0 0.00 0.00 0.00 77 1009.5
20260506125914 18 150 0.0 0.0 0.00 0.00 0.00 78 1009.3
20260506125412 18 124 0.0 0.0 0.00 0.00 0.00 79 1009.7
20260506124910 18 127 0.0 0.0 0.00 0.00 0.00 79 1009.6
20260506124407 18 136 0.0 0.0 0.00 0.00 0.00 79 1009.7
20260506123905 18 133 0.0 0.0 0.00 0.00 0.00 79 1009.6
20260506123403 18 125 0.0 0.0 0.00 0.00 0.00 79 1009.6
20260506122900 18 142 0.0 0.0 0.00 0.00 0.00 80 1009.6
20260506122356 18 153 0.0 0.0 0.00 0.00 0.00 80 1009.9
20260506121855 18 128 0.0 0.0 0.00 0.00 0.00 81 1010.0
20260506121352 18 112 0.0 1.6 0.00 0.00 0.00 78 1009.9
20260506120848 18 146 0.0 0.0 0.00 0.00 0.00 78 1009.8
20260506120346 18 86 0.0 0.0 0.00 0.00 0.00 78 1009.6
20260506115844 18 131 0.0 0.0 0.00 0.00 0.00 78 1009.7
20260506115342 18 135 0.0 0.0 0.00 0.00 0.00 78 1009.7
20260506114839 18 225 0.0 0.0 0.00 0.00 0.00 78 1009.3
20260506114337 18 152 0.0 0.0 0.00 0.00 0.00 78 1009.5
20260506113835 18 107 0.0 0.0 0.00 0.00 0.00 78 1009.5
20260506113333 18 135 0.0 0.0 0.00 0.00 0.00 78 1009.3
20260506112829 18 137 0.0 0.0 0.00 0.00 0.00 78 1009.3
20260506112326 18 135 0.0 0.0 0.00 0.00 0.00 79 1009.5
20260506111824 18 131 0.0 0.0 0.00 0.00 0.00 79 1009.3
20260506111322 18 221 0.0 0.0 0.00 0.00 0.00 79 1009.4
20260506110819 18 89 0.0 0.0 0.00 0.00 0.00 79 1009.2
20260506110316 18 131 0.0 0.0 0.00 0.00 0.00 79 1009.1
20260506105813 18 134 0.0 0.0 0.00 0.00 0.00 79 1009.3
20260506105309 18 142 0.0 0.0 0.00 0.00 0.00 79 1008.8
20260506104807 18 161 0.0 0.0 0.00 0.00 0.00 79 1009.1
20260506104304 18 142 0.0 0.0 0.00 0.00 0.00 79 1009.3
20260506103802 18 157 0.0 0.0 0.00 0.00 0.00 79 1009.1
20260506103259 18 140 0.0 0.0 0.00 0.00 0.00 80 1009.2
20260506102756 18 132 0.0 0.0 0.00 0.00 0.00 80 1009.1
20260506102254 17 139 0.0 0.0 0.00 0.00 0.00 80 1009.2
20260506101751 17 126 0.0 0.0 0.00 0.00 0.00 81 1009.1
20260506101247 17 143 0.0 0.0 0.00 0.00 0.00 80 1009.0
20260506100745 17 162 0.0 0.0 0.00 0.00 0.00 80 1009.0
20260506100243 18 139 0.0 0.0 0.00 0.00 0.00 80 1008.9
20260506095742 17 138 0.0 0.0 0.00 0.00 0.00 81 1009.2
20260506095238 17 139 0.0 0.0 0.00 0.00 0.00 80 1009.4
20260506094735 17 129 0.0 0.0 0.00 0.00 0.00 80 1008.8
20260506094233 17 127 0.0 0.0 0.00 0.00 0.00 81 1009.1
20260506093732 17 141 0.0 0.0 0.00 0.00 0.00 81 1009.0
20260506093228 17 134 0.0 0.0 0.00 0.00 0.00 81 1009.1
20260506092726 17 144 0.0 0.0 0.00 0.00 0.00 81 1009.2
20260506092224 17 144 0.0 0.0 0.00 0.00 0.00 81 1009.2